�N����,����,�~����,�C��,���x,�C��,����,���ϕ���,�ő�u�ԕ���,�ő厞����,���˗�,�I�_���x,�n�����x,�ő啗���N��,DTYPE
"18/11/14","00:10",0.0,11.8,73.7,1009.7,314.6,2.8,5.7,325.0,0.00,7.3,14.2,"00:02:18",1
"18/11/14","00:20",0.0,11.8,73.9,1009.5,313.8,3.0,5.5,337.2,0.00,7.3,14.1,"00:18:56",1
"18/11/14","00:30",0.0,11.7,74.1,1009.5,316.7,2.8,4.5,342.6,0.00,7.3,14.1,"00:20:08",1
"18/11/14","00:40",0.0,11.5,74.6,1009.7,318.4,2.6,5.1,329.2,0.00,7.2,14.0,"00:32:58",1
"18/11/14","00:50",0.0,11.2,75.6,1009.7,317.1,2.1,3.2,323.6,0.00,7.1,13.9,"00:41:46",1
"18/11/14","01:00",0.0,11.4,77.0,1009.5,319.2,2.7,4.7,317.3,0.00,7.6,14.0,"00:53:52",1
"18/11/14","01:10",0.0,11.4,76.3,1009.3,321.0,2.6,4.0,340.8,0.00,7.4,13.8,"01:07:06",1
"18/11/14","01:20",0.0,11.5,76.2,1009.5,320.6,3.1,5.2,330.8,0.00,7.5,14.1,"01:13:20",1
"18/11/14","01:30",0.0,11.4,76.4,1009.7,324.9,2.5,4.1,334.2,0.00,7.4,13.9,"01:23:30",1
"18/11/14","01:40",0.0,11.6,76.7,1009.5,322.5,3.4,5.7,337.0,0.00,7.7,13.7,"01:38:08",1
"18/11/14","01:50",0.0,11.8,75.7,1009.5,330.9,3.5,5.6,333.6,0.00,7.7,13.9,"01:42:42",1
"18/11/14","02:00",0.0,11.5,76.1,1009.5,331.2,3.0,5.6,325.2,0.00,7.5,13.9,"01:51:08",1
"18/11/14","02:10",0.0,11.5,76.8,1009.7,332.5,3.2,5.8,337.8,0.00,7.6,13.7,"02:01:48",1
"18/11/14","02:20",0.0,11.4,76.5,1009.5,325.5,3.1,5.8,329.4,0.00,7.5,13.9,"02:12:54",1
"18/11/14","02:30",0.0,11.4,76.4,1010.0,324.6,2.3,3.6,339.1,0.00,7.4,13.7,"02:24:58",1
"18/11/14","02:40",0.0,11.3,76.0,1010.0,312.2,2.2,4.1,323.0,0.00,7.3,13.7,"02:30:48",1
"18/11/14","02:50",0.0,11.3,76.1,1009.7,325.2,2.1,4.7,322.4,0.00,7.3,13.7,"02:46:04",1
"18/11/14","03:00",0.0,10.9,75.9,1009.7,316.4,1.5,2.9,304.0,0.00,6.9,13.5,"02:56:16",1
"18/11/14","03:10",0.0,10.1,77.6,1009.5,309.7,1.3,2.1,306.4,0.00,6.4,13.5,"03:08:40",1
"18/11/14","03:20",0.0,9.3,81.4,1009.5,319.0,1.3,2.4,313.2,0.00,6.3,13.6,"03:16:40",1
"18/11/14","03:30",0.0,8.7,84.3,1009.5,306.3,1.3,2.4,293.5,0.00,6.2,13.3,"03:29:04",1
"18/11/14","03:40",0.0,8.3,85.8,1009.3,309.1,1.6,2.7,325.8,0.00,6.1,13.5,"03:32:32",1
"18/11/14","03:50",0.0,8.1,88.1,1009.3,318.7,1.6,2.8,321.8,0.00,6.3,13.5,"03:42:40",1
"18/11/14","04:00",0.0,8.0,88.7,1009.0,313.8,1.5,3.1,355.3,0.00,6.3,13.3,"03:53:20",1
"18/11/14","04:10",0.0,8.4,90.0,1009.3,282.5,1.1,3.3,346.2,0.00,6.9,13.4,"04:03:52",1
"18/11/14","04:20",0.0,8.4,89.1,1009.3,316.4,1.1,2.4,335.6,0.00,6.8,13.4,"04:13:12",1
"18/11/14","04:30",0.0,7.9,88.7,1009.5,307.1,1.6,2.6,316.1,0.00,6.2,13.2,"04:21:04",1
"18/11/14","04:40",0.0,8.2,90.4,1009.7,329.2,2.1,4.1,333.6,0.00,6.8,13.3,"04:39:36",1
"18/11/14","04:50",0.0,9.0,89.0,1010.0,337.9,1.8,2.9,7.4,0.00,7.3,13.2,"04:44:08",1
"18/11/14","05:00",0.0,9.6,86.6,1009.5,323.3,2.2,3.7,325.0,0.00,7.5,13.2,"04:58:24",1
"18/11/14","05:10",0.0,10.2,83.5,1010.0,316.8,2.5,4.0,340.6,0.00,7.6,13.2,"05:04:48",1
"18/11/14","05:20",0.0,10.2,81.5,1010.2,315.5,1.8,2.8,327.2,0.00,7.2,12.8,"05:15:44",1
"18/11/14","05:30",0.0,10.3,79.9,1010.7,329.3,2.3,3.7,315.7,0.00,7.0,12.9,"05:22:18",1
"18/11/14","05:40",0.0,10.4,79.9,1010.7,325.8,2.0,3.2,343.0,0.00,7.1,13.0,"05:30:48",1
"18/11/14","05:50",0.0,10.5,79.0,1010.4,335.5,2.0,3.5,334.6,0.00,7.1,13.1,"05:46:52",1
"18/11/14","06:00",0.0,10.3,79.7,1010.7,321.2,1.8,2.9,328.2,0.00,7.0,13.1,"05:58:56",1
"18/11/14","06:10",0.0,10.3,80.0,1010.9,306.4,2.1,3.2,307.5,0.00,7.0,13.1,"06:04:42",1
"18/11/14","06:20",0.0,10.2,80.0,1011.2,318.4,2.1,3.6,340.2,0.00,6.9,13.1,"06:11:44",1
"18/11/14","06:30",0.0,10.1,80.9,1010.9,315.4,2.2,3.9,324.8,0.00,7.0,13.2,"06:21:20",1
"18/11/14","06:40",0.0,10.1,81.4,1010.9,287.3,2.1,3.7,272.3,0.00,7.1,13.1,"06:33:20",1
"18/11/14","06:50",0.0,10.0,81.5,1010.9,298.2,2.0,3.1,341.0,0.00,7.0,13.1,"06:43:28",1
"18/11/14","07:00",0.0,10.0,82.3,1011.4,311.0,2.0,3.4,332.0,0.00,7.2,12.9,"06:52:48",1
"18/11/14","07:10",0.0,10.1,81.9,1011.2,314.4,2.0,4.1,324.0,0.00,7.2,13.0,"07:02:00",1
"18/11/14","07:20",0.0,10.0,82.5,1010.9,324.2,2.0,3.5,311.8,0.00,7.2,13.0,"07:15:04",1
"18/11/14","07:30",0.0,10.0,82.9,1011.4,303.2,1.7,3.4,327.8,0.00,7.3,13.0,"07:24:16",1
"18/11/14","07:40",0.0,10.2,83.4,1011.4,314.6,2.2,4.9,329.8,0.00,7.6,12.8,"07:31:36",1
"18/11/14","07:50",0.0,10.3,83.1,1011.6,316.8,2.1,3.5,337.8,0.00,7.6,12.8,"07:41:28",1
"18/11/14","08:00",0.0,11.1,83.3,1011.6,324.0,2.3,4.1,335.1,0.03,8.4,13.0,"07:56:16",1
"18/11/14","08:10",0.0,11.3,81.5,1011.9,318.3,2.1,4.0,332.1,0.03,8.3,13.2,"08:07:42",1
"18/11/14","08:20",0.0,11.3,81.6,1012.3,293.2,2.0,4.4,331.1,0.04,8.3,13.1,"08:19:36",1
"18/11/14","08:30",0.0,11.8,81.0,1012.3,295.8,2.0,4.8,338.2,0.10,8.7,13.2,"08:21:04",1
"18/11/14","08:40",0.0,12.0,79.4,1012.3,296.6,1.8,4.7,331.0,0.08,8.6,13.3,"08:31:12",1
"18/11/14","08:50",0.0,12.0,79.4,1012.8,287.6,1.7,3.2,339.8,0.07,8.6,13.3,"08:46:56",1
"18/11/14","09:00",0.0,11.9,80.0,1012.8,294.7,1.6,4.2,342.1,0.04,8.6,13.4,"08:52:16",1
"18/11/14","09:10",0.0,11.8,80.0,1012.6,289.3,2.0,3.9,344.1,0.05,8.5,13.4,"09:04:24",1
"18/11/14","09:20",0.0,11.8,80.4,1012.3,286.2,1.7,3.1,327.7,0.09,8.6,13.5,"09:10:48",1
"18/11/14","09:30",0.0,12.3,79.8,1012.3,291.9,1.7,3.6,327.3,0.10,9.0,13.5,"09:21:52",1
"18/11/14","09:40",0.0,12.1,80.1,1012.8,298.3,1.8,5.4,343.4,0.10,8.8,13.6,"09:32:40",1
"18/11/14","09:50",0.0,12.3,79.2,1012.6,295.2,1.8,3.3,307.1,0.10,8.8,13.6,"09:47:28",1
"18/11/14","10:00",0.0,12.2,80.2,1012.6,294.5,1.7,2.7,340.5,0.12,8.9,13.6,"09:54:56",1
"18/11/14","10:10",0.0,12.7,80.3,1012.8,285.3,1.6,2.8,252.5,0.14,9.4,13.8,"10:06:08",1
"18/11/14","10:20",0.0,12.8,79.6,1013.0,286.9,2.0,4.3,320.6,0.15,9.4,13.9,"10:13:28",1
"18/11/14","10:30",0.0,12.9,78.3,1012.8,304.3,1.8,4.2,342.6,0.09,9.3,14.1,"10:27:36",1
"18/11/14","10:40",0.0,12.8,78.2,1012.8,288.1,1.8,2.9,305.7,0.08,9.1,14.1,"10:32:16",1
"18/11/14","10:50",0.0,12.7,79.4,1012.8,292.1,1.8,3.5,328.2,0.05,9.3,14.0,"10:41:36",1
"18/11/14","11:00",0.0,13.0,81.5,1013.0,289.9,1.7,4.0,339.5,0.15,10.0,14.3,"10:52:40",1
"18/11/14","11:10",0.0,13.1,79.7,1012.8,304.1,2.1,3.6,350.5,0.16,9.7,14.3,"11:06:56",1
"18/11/14","11:20",0.0,13.1,78.7,1012.6,294.9,1.8,4.3,283.1,0.10,9.5,14.3,"11:18:40",1
"18/11/14","11:30",0.0,13.0,79.9,1012.8,306.4,2.1,4.9,335.8,0.10,9.7,14.3,"11:28:00",1
"18/11/14","11:40",0.0,13.0,80.6,1012.3,295.2,2.0,3.9,323.5,0.18,9.8,14.4,"11:34:32",1
"18/11/14","11:50",0.0,14.3,78.3,1012.1,275.7,2.0,4.3,290.3,0.30,10.6,14.6,"11:47:20",1
"18/11/14","12:00",0.0,14.1,75.2,1012.1,291.7,2.2,4.8,342.9,0.16,9.8,14.6,"11:56:56",1
"18/11/14","12:10",0.0,14.3,75.2,1011.9,286.0,1.5,2.9,319.5,0.20,10.0,14.8,"12:04:00",1
"18/11/14","12:20",0.0,14.1,73.1,1012.1,320.8,2.2,4.4,333.4,0.06,9.4,14.7,"12:13:44",1
"18/11/14","12:30",0.0,13.7,75.5,1011.6,326.5,1.8,3.7,317.6,0.04,9.5,14.9,"12:20:16",1
"18/11/14","12:40",0.0,13.7,75.5,1011.9,353.9,1.7,3.6,352.6,0.07,9.5,14.9,"12:31:28",1
"18/11/14","12:50",0.0,13.7,76.1,1011.6,334.3,2.0,4.3,332.5,0.11,9.6,15.0,"12:40:08",1
"18/11/14","13:00",0.0,14.2,75.4,1011.6,274.0,1.6,2.9,303.4,0.17,10.0,15.1,"12:59:44",1
"18/11/14","13:10",0.0,14.3,74.8,1011.6,295.5,1.8,3.6,335.7,0.07,9.9,15.2,"13:08:08",1
"18/11/14","13:20",0.0,13.9,74.3,1011.6,311.0,2.5,5.1,335.9,0.06,9.4,15.2,"13:14:08",1
"18/11/14","13:30",0.0,14.1,74.6,1011.6,332.3,2.5,4.9,343.7,0.11,9.7,15.0,"13:23:20",1
"18/11/14","13:40",0.0,14.4,73.7,1011.4,337.2,2.0,3.6,348.1,0.23,9.8,15.2,"13:36:00",1
"18/11/14","13:50",0.0,14.4,73.3,1011.6,289.6,1.7,3.9,330.7,0.09,9.7,15.2,"13:46:56",1
"18/11/14","14:00",0.0,14.2,74.1,1011.6,308.2,2.6,6.4,322.7,0.11,9.7,15.3,"13:52:56",1
"18/11/14","14:10",0.0,14.3,73.5,1011.6,299.8,1.8,3.9,339.0,0.08,9.7,15.3,"14:09:36",1
"18/11/14","14:20",0.0,14.3,75.1,1011.9,303.9,2.3,4.8,346.9,0.13,10.0,15.4,"14:15:44",1
"18/11/14","14:30",0.0,14.1,73.0,1011.6,331.2,3.0,5.6,343.6,0.09,9.4,15.4,"14:25:52",1
"18/11/14","14:40",0.0,14.3,73.4,1011.9,315.4,3.0,5.9,334.5,0.14,9.7,15.3,"14:30:40",1
"18/11/14","14:50",0.0,14.3,71.7,1011.9,320.7,2.6,5.6,319.0,0.15,9.3,15.3,"14:43:12",1
"18/11/14","15:00",0.0,14.7,70.7,1011.9,301.5,2.5,4.9,331.7,0.19,9.5,15.5,"14:51:52",1
"18/11/14","15:10",0.0,14.1,70.1,1012.1,313.2,3.0,5.4,325.1,0.07,8.8,15.2,"15:06:48",1
"18/11/14","15:20",0.0,14.1,71.8,1012.1,321.5,3.2,7.7,320.4,0.15,9.1,15.5,"15:15:12",1
"18/11/14","15:30",0.0,14.0,70.2,1011.9,313.0,2.6,6.8,327.8,0.06,8.7,15.4,"15:26:00",1
"18/11/14","15:40",0.0,14.1,72.1,1012.1,314.7,2.0,3.5,326.6,0.08,9.2,15.3,"15:30:48",1
"18/11/14","15:50",0.0,14.1,70.0,1012.1,315.0,2.0,3.5,346.2,0.05,8.8,15.7,"15:44:24",1
"18/11/14","16:00",0.0,13.8,71.7,1012.1,317.4,1.8,3.3,334.9,0.06,8.8,15.4,"15:57:36",1
"18/11/14","16:10",0.0,13.9,71.6,1012.3,307.3,1.7,3.2,335.9,0.04,8.9,15.3,"16:09:28",1
"18/11/14","16:20",0.0,13.6,72.1,1012.1,300.3,1.5,3.6,316.0,0.02,8.7,15.4,"16:12:08",1
"18/11/14","16:30",0.0,13.4,73.7,1012.6,332.8,1.3,2.5,327.6,0.01,8.8,15.3,"16:23:28",1
"18/11/14","16:40",0.0,13.3,75.0,1012.6,334.6,1.7,2.6,326.2,0.00,9.0,15.3,"16:35:44",1
"18/11/14","16:50",0.0,13.1,76.0,1012.6,325.4,1.1,2.4,330.4,0.00,9.0,15.3,"16:43:52",1
"18/11/14","17:00",0.0,12.8,77.3,1012.8,329.9,1.2,2.2,340.3,0.00,9.0,15.4,"16:51:04",1
"18/11/14","17:10",0.0,12.4,79.3,1012.3,306.4,1.1,2.2,337.4,0.00,9.0,15.1,"17:07:38",1
"18/11/14","17:20",0.0,12.3,80.6,1012.6,327.1,1.6,2.5,341.0,0.00,9.1,15.3,"17:14:48",1
"18/11/14","17:30",0.0,12.3,81.0,1012.3,327.9,1.3,2.1,336.6,0.00,9.2,14.8,"17:28:18",1
"18/11/14","17:40",0.0,12.2,81.5,1012.6,326.0,1.3,2.1,326.7,0.00,9.2,15.0,"17:35:22",1
"18/11/14","17:50",0.0,12.1,81.9,1012.8,331.2,1.8,3.1,334.3,0.00,9.1,15.1,"17:42:28",1
"18/11/14","18:00",0.0,12.3,81.6,1012.8,318.0,2.0,2.9,337.5,0.00,9.3,14.9,"17:55:38",1
"18/11/14","18:10",0.0,12.3,81.0,1012.8,321.7,2.1,3.4,316.7,0.00,9.2,15.0,"18:06:18",1
"18/11/14","18:20",0.0,12.2,81.4,1012.8,317.7,2.3,3.6,338.0,0.00,9.2,14.8,"18:11:30",1
"18/11/14","18:30",0.0,12.0,81.7,1013.0,311.1,1.8,3.6,323.5,0.00,9.0,14.8,"18:28:04",1
"18/11/14","18:40",0.0,11.7,82.7,1013.0,315.3,2.0,2.8,323.7,0.00,8.9,14.7,"18:30:42",1
"18/11/14","18:50",0.0,11.9,83.0,1013.3,322.1,2.5,3.5,323.4,0.00,9.1,14.6,"18:43:48",1
"18/11/14","19:00",0.0,11.8,83.4,1013.5,326.0,2.7,3.6,341.5,0.00,9.1,14.6,"18:56:02",1
"18/11/14","19:10",0.0,11.6,83.8,1013.3,322.7,2.1,2.8,320.8,0.00,9.0,14.6,"19:03:04",1
"18/11/14","19:20",0.0,11.5,84.3,1013.5,323.6,2.1,3.3,317.6,0.00,9.0,14.4,"19:11:40",1
"18/11/14","19:30",0.0,11.3,84.9,1014.0,312.0,2.0,2.9,318.5,0.00,8.9,14.4,"19:27:52",1
"18/11/14","19:40",0.0,11.5,86.1,1013.5,318.3,2.3,3.4,336.6,0.00,9.3,14.4,"19:37:30",1
"18/11/14","19:50",0.0,11.8,85.9,1013.8,321.9,2.3,3.2,331.0,0.00,9.6,14.3,"19:44:34",1
"18/11/14","20:00",0.0,11.9,85.6,1014.0,322.1,2.6,4.5,322.2,0.00,9.6,14.2,"19:59:44",1
"18/11/14","20:10",0.0,11.9,85.5,1014.0,322.8,2.5,3.7,335.4,0.00,9.6,14.3,"20:09:44",1
"18/11/14","20:20",0.0,11.6,85.8,1014.5,310.4,2.2,3.9,331.3,0.00,9.3,14.3,"20:17:16",1
"18/11/14","20:30",0.0,11.4,86.6,1014.0,324.9,2.7,4.8,342.3,0.00,9.3,14.2,"20:28:52",1
"18/11/14","20:40",0.0,11.2,87.1,1014.2,331.6,2.6,4.2,328.3,0.00,9.2,14.0,"20:34:08",1
"18/11/14","20:50",0.0,11.0,87.7,1014.0,329.8,2.1,2.9,320.9,0.00,9.1,13.9,"20:40:32",1
"18/11/14","21:00",0.0,11.0,87.9,1014.5,327.1,2.6,4.0,339.1,0.00,9.1,14.1,"20:54:10",1
"18/11/14","21:10",0.0,11.0,87.9,1014.2,320.4,2.6,4.5,332.9,0.00,9.1,14.1,"21:02:02",1
"18/11/14","21:20",0.0,10.9,88.3,1014.5,317.4,2.2,3.1,340.5,0.00,9.1,13.9,"21:10:24",1
"18/11/14","21:30",0.0,10.7,88.6,1014.7,331.6,2.6,3.7,341.8,0.00,8.9,14.0,"21:22:32",1
"18/11/14","21:40",0.0,10.9,88.7,1014.5,320.5,2.7,4.1,332.8,0.00,9.2,13.8,"21:32:08",1
"18/11/14","21:50",0.0,10.9,88.7,1014.9,319.8,2.2,3.4,320.3,0.00,9.2,13.8,"21:45:44",1
"18/11/14","22:00",0.0,10.9,89.3,1014.7,325.5,2.7,4.3,328.8,0.00,9.3,13.9,"21:52:08",1
"18/11/14","22:10",0.0,10.9,89.6,1014.9,314.1,2.1,3.6,343.6,0.00,9.3,13.9,"22:01:28",1
"18/11/14","22:20",0.0,10.8,89.5,1014.7,329.9,2.5,3.9,328.9,0.00,9.2,13.7,"22:16:48",1
"18/11/14","22:30",0.0,10.3,89.9,1014.7,335.2,2.0,3.5,324.8,0.00,8.8,13.7,"22:26:48",1
"18/11/14","22:40",0.0,9.9,90.4,1014.9,335.8,1.6,2.6,333.6,0.00,8.4,13.6,"22:31:20",1
"18/11/14","22:50",0.0,9.8,91.4,1015.2,344.2,1.2,2.4,335.2,0.00,8.5,13.5,"22:49:52",1
"18/11/14","23:00",0.0,9.4,91.4,1015.2,326.9,2.1,3.2,313.4,0.00,8.1,13.4,"22:59:36",1
"18/11/14","23:10",0.0,9.3,92.4,1014.9,319.4,1.8,2.7,329.4,0.00,8.2,13.5,"23:09:12",1
"18/11/14","23:20",0.0,9.5,92.8,1014.9,323.3,2.1,2.7,325.6,0.00,8.4,13.4,"23:15:04",1
"18/11/14","23:30",0.0,9.5,93.2,1014.7,327.7,2.0,2.7,312.2,0.00,8.5,13.6,"23:24:08",1
"18/11/14","23:40",0.0,9.2,92.8,1014.9,318.2,1.6,2.6,313.3,0.00,8.1,13.4,"23:33:52",1
"18/11/14","23:50",0.0,8.9,93.3,1014.9,311.1,1.5,2.4,326.8,0.00,7.9,13.4,"23:40:16",1
"18/11/14","24:00",0.0,8.8,93.7,1014.9,326.5,2.0,3.4,331.0,0.00,7.9,13.2,"23:51:44",1
